TimePDT,TemperatureF,Dew PointF,Humidity,Sea Level PressureIn,VisibilityMPH,Wind Direction,Wind SpeedMPH,Gust SpeedMPH,PrecipitationIn,Events,Conditions,WindDirDegrees,DateUTC
12:15 AM,55.4,55.4,100,30.01,0.2,Calm,Calm,-,N/A,,Overcast,0,2012-10-20 07:15:00
12:35 AM,55.4,55.4,100,30.01,0.2,Calm,Calm,-,N/A,,Overcast,0,2012-10-20 07:35:00
12:55 AM,55.4,55.4,100,30.01,0.2,Calm,Calm,-,N/A,,Overcast,0,2012-10-20 07:55:00
1:15 AM,55.4,55.4,100,30.02,0.2,Calm,Calm,-,N/A,,Overcast,0,2012-10-20 08:15:00
1:55 AM,55.4,55.4,100,30.01,0.2,Calm,Calm,-,N/A,,Overcast,0,2012-10-20 08:55:00
2:15 AM,55.4,55.4,100,30.02,0.2,Calm,Calm,-,N/A,,Overcast,0,2012-10-20 09:15:00
3:15 AM,55.4,55.4,100,30.02,0.2,Calm,Calm,-,N/A,,Overcast,0,2012-10-20 10:15:00
3:35 AM,55.4,55.4,100,30.01,0.2,Calm,Calm,-,N/A,,Overcast,0,2012-10-20 10:35:00
3:55 AM,55.4,55.4,100,30.01,0.2,Calm,Calm,-,N/A,,Overcast,0,2012-10-20 10:55:00
4:15 AM,55.4,55.4,100,30.00,0.2,Calm,Calm,-,N/A,,Overcast,0,2012-10-20 11:15:00
4:35 AM,55.4,55.4,100,30.01,0.2,Calm,Calm,-,N/A,,Overcast,0,2012-10-20 11:35:00
4:55 AM,55.4,55.4,100,30.00,0.2,Calm,Calm,-,N/A,,Overcast,0,2012-10-20 11:55:00
5:15 AM,55.4,55.4,100,30.01,0.2,Calm,Calm,-,N/A,,Overcast,0,2012-10-20 12:15:00
5:35 AM,55.4,55.4,100,30.00,0.2,Calm,Calm,-,N/A,,Overcast,0,2012-10-20 12:35:00
5:55 AM,55.4,55.4,100,30.00,0.2,NW,3.5,-,N/A,,Overcast,320,2012-10-20 12:55:00
6:15 AM,55.4,55.4,100,30.00,0.2,NW,6.9,-,N/A,,Overcast,310,2012-10-20 13:15:00
6:35 AM,53.6,53.6,100,30.00,0.2,NW,6.9,-,0.01,,Overcast,320,2012-10-20 13:35:00
6:55 AM,53.6,53.6,100,30.00,1.0,NNW,4.6,-,0.01,,Overcast,330,2012-10-20 13:55:00
7:15 AM,53.6,53.6,100,30.01,10.0,North,5.8,-,N/A,,Overcast,350,2012-10-20 14:15:00
7:35 AM,53.6,53.6,100,30.01,10.0,Calm,Calm,-,N/A,,Overcast,0,2012-10-20 14:35:00
7:55 AM,53.6,53.6,100,30.01,10.0,NW,3.5,-,N/A,,Overcast,320,2012-10-20 14:55:00
8:15 AM,53.6,53.6,100,30.01,10.0,Calm,Calm,-,N/A,,Overcast,0,2012-10-20 15:15:00
8:35 AM,53.6,53.6,100,30.02,10.0,WNW,5.8,-,N/A,,Overcast,300,2012-10-20 15:35:00
9:15 AM,53.6,53.6,100,30.04,10.0,NNW,3.5,-,N/A,,Overcast,330,2012-10-20 16:15:00
9:35 AM,53.6,53.6,100,30.04,10.0,Calm,Calm,-,N/A,,Overcast,0,2012-10-20 16:35:00
9:55 AM,53.6,53.6,100,30.05,10.0,NW,5.8,-,N/A,,Overcast,320,2012-10-20 16:55:00
10:15 AM,55.4,53.6,94,30.04,10.0,NNW,11.5,-,N/A,,Overcast,330,2012-10-20 17:15:00
10:35 AM,55.4,53.6,94,30.04,10.0,NNW,9.2,-,N/A,,Overcast,340,2012-10-20 17:35:00
10:55 AM,55.4,51.8,88,30.04,10.0,NNW,11.5,17.3,N/A,,Overcast,330,2012-10-20 17:55:00
11:15 AM,55.4,51.8,88,30.04,10.0,NNW,15.0,20.7,N/A,,Overcast,330,2012-10-20 18:15:00
11:35 AM,57.2,50.0,77,30.04,10.0,North,11.5,19.6,N/A,,Overcast,350,2012-10-20 18:35:00
11:55 AM,55.4,50.0,82,30.04,10.0,NNW,17.3,21.9,N/A,,Overcast,330,2012-10-20 18:55:00
12:15 PM,57.2,50.0,77,30.04,10.0,North,15.0,24.2,N/A,,Overcast,350,2012-10-20 19:15:00
12:35 PM,55.4,48.2,77,30.04,10.0,North,18.4,25.3,N/A,,Mostly Cloudy,350,2012-10-20 19:35:00
12:55 PM,59.0,48.2,67,30.03,10.0,NNW,16.1,20.7,N/A,,Mostly Cloudy,340,2012-10-20 19:55:00
1:15 PM,57.2,46.4,67,30.03,10.0,North,16.1,25.3,N/A,,Scattered Clouds,350,2012-10-20 20:15:00
1:35 PM,57.2,44.6,63,30.02,10.0,NNW,15.0,23.0,N/A,,Partly Cloudy,330,2012-10-20 20:35:00
1:55 PM,57.2,44.6,63,30.02,10.0,NNW,19.6,25.3,N/A,,Clear,330,2012-10-20 20:55:00
2:15 PM,57.2,39.2,51,30.02,10.0,NNW,21.9,28.8,N/A,,Clear,340,2012-10-20 21:15:00
2:35 PM,57.2,39.2,51,30.00,10.0,NNW,19.6,27.6,N/A,,Clear,340,2012-10-20 21:35:00
2:55 PM,57.2,41.0,55,30.00,10.0,NNW,16.1,24.2,N/A,,Clear,330,2012-10-20 21:55:00
3:15 PM,57.2,41.0,55,30.00,10.0,NNW,16.1,20.7,N/A,,Clear,330,2012-10-20 22:15:00
3:35 PM,57.2,41.0,55,30.00,10.0,NNW,18.4,23.0,N/A,,Clear,340,2012-10-20 22:35:00
3:55 PM,57.2,41.0,55,30.00,10.0,NNW,17.3,25.3,N/A,,Clear,340,2012-10-20 22:55:00
4:15 PM,57.2,41.0,55,30.00,10.0,NNW,17.3,23.0,N/A,,Clear,340,2012-10-20 23:15:00
4:35 PM,55.4,41.0,58,30.01,10.0,North,16.1,23.0,N/A,,Clear,350,2012-10-20 23:35:00
4:55 PM,55.4,41.0,58,30.00,10.0,NNW,17.3,20.7,N/A,,Clear,340,2012-10-20 23:55:00
5:15 PM,55.4,41.0,58,30.00,10.0,NNW,11.5,-,N/A,,Clear,330,2012-10-21 00:15:00
5:35 PM,53.6,41.0,62,29.99,10.0,NW,11.5,16.1,N/A,,Clear,320,2012-10-21 00:35:00
5:55 PM,53.6,39.2,58,30.00,10.0,NNW,11.5,17.3,N/A,,Clear,340,2012-10-21 00:55:00
6:15 PM,53.6,39.2,58,29.99,10.0,NNW,6.9,16.1,N/A,,Clear,330,2012-10-21 01:15:00
6:55 PM,50.0,42.8,76,29.99,10.0,NNW,9.2,-,N/A,,Clear,330,2012-10-21 01:55:00
7:15 PM,50.0,44.6,82,30.00,10.0,NW,3.5,-,N/A,,Clear,320,2012-10-21 02:15:00
7:35 PM,48.2,44.6,87,30.00,10.0,NW,4.6,-,N/A,,Clear,310,2012-10-21 02:35:00
7:55 PM,48.2,46.4,93,30.00,10.0,Calm,Calm,-,N/A,,Clear,0,2012-10-21 02:55:00
8:15 PM,48.2,46.4,93,30.00,10.0,Calm,Calm,-,N/A,,Clear,0,2012-10-21 03:15:00
8:35 PM,46.4,46.4,100,29.99,10.0,Calm,Calm,-,N/A,,Clear,0,2012-10-21 03:35:00
8:55 PM,46.4,46.4,100,30.00,10.0,Calm,Calm,-,N/A,,Clear,0,2012-10-21 03:55:00
9:15 PM,48.2,46.4,93,30.01,10.0,Calm,Calm,-,N/A,,Clear,0,2012-10-21 04:15:00
9:35 PM,48.2,46.4,93,30.01,10.0,Calm,Calm,-,N/A,,Clear,0,2012-10-21 04:35:00
9:55 PM,46.4,46.4,100,30.01,10.0,Calm,Calm,-,N/A,,Clear,0,2012-10-21 04:55:00
10:15 PM,46.4,46.4,100,30.01,10.0,Calm,Calm,-,N/A,,Clear,0,2012-10-21 05:15:00
10:35 PM,48.2,44.6,87,30.00,10.0,Calm,Calm,-,N/A,,Clear,0,2012-10-21 05:35:00
10:55 PM,46.4,44.6,93,30.00,10.0,Calm,Calm,-,N/A,,Clear,0,2012-10-21 05:55:00
11:15 PM,46.4,44.6,93,30.00,10.0,Calm,Calm,-,N/A,,Clear,0,2012-10-21 06:15:00
11:35 PM,46.4,44.6,93,30.00,10.0,Calm,Calm,-,N/A,,Clear,0,2012-10-21 06:35:00
11:55 PM,46.4,44.6,93,30.00,10.0,Calm,Calm,-,N/A,,Clear,0,2012-10-21 06:55:00